Погода в Ржичани

Чехия     49°59′30″N   14°39′26″E
темп.,
°C
ветер,
м/с
пор.,
м/с
влажн.,
%
обл.,
%
осадки,
мм/ч
давл.,
гПа
погр.,
м
20 апреля, вт
вт2023:00+7сз2290100 0.0 101749
02:00+4зсз22958 0.0 101714
05:00+3зсз11965 0.0 101710
08:00+6зсз128883 0.0 1017155
11:00+10сз21745 0.2 1016397
14:00+14с32505 0.3 10141661
17:00+14ссв22486 0.0 10131619
20:00+9ссв11715 0.0 101411
21 апреля, ср
ср2123:00+7юз228511 0.6 101511
02:00+6юз22885 0.6 101514
05:00+5юз229058 0.0 101524
08:00+8зюз24835 0.0 1015204
11:00+12зсз336612 0.3 1015758
14:00+15зсз354951 1.1 10131984
17:00+15з335463 0.1 10121255
20:00+11с246793 0.6 101390
22 апреля, чт
чт2223:00+7сз117534 0.0 101511
02:00+6сз3481100 0.0 101674
05:00+5ссз5791100 0.1 1017874
08:00+3сз5872100 1.2 1020809
11:00+6сз5752100 0.0 10201266
14:00+9сз694191 0.0 10202213
17:00+9сз7944100 0.0 10192082
20:00+6сз51065100 0.1 1021488
23 апреля, пт
пт2323:00+3зсз410735 0.1 1023289
02:00+2зсз410815 0.1 1023365
05:00+1з410845 0.0 1024358
08:00+3зсз6107382 0.0 10241042
11:00+5сз8116299 0.1 10251648
14:00+7сз8115590 0.1 10251811
17:00+8сз7104790 0.0 10252078
20:00+5сз34739 0.1 102666
24 апреля, сб
сб2423:00+3зсз22725 0.0 102824
02:00+1зюз11775 0.0 102810
05:000ююз227767 0.0 102710
08:00+4зюз346919 0.0 1027299
11:00+8сз56575 0.0 10261253
14:00+10сз574690 0.0 10241900
17:00+9ссз785370 0.0 10241613
20:00+5с487092 0.0 1025327